This is the latest recevied weather packets stored in our database for station/object KB2SKP. If no packets are shown the sender has not sent any weather packets the latest 10 day(s).
| Time | Temp. | Humidity | Pressure | Rain* | Wind** | Luminosity | Snow |
|---|---|---|---|---|---|---|---|
| 1778026384 | 24.44° C | 42% | 1007.8 hPa | 0 mm | - | 0 W/m² | - |
| 1778026081 | 25° C | 42% | 1007.7 hPa | 0 mm | - | 0 W/m² | - |
| 1778025779 | 25° C | 41% | 1007.5 hPa | 0 mm | - | 1 W/m² | - |
| 1778025475 | 25° C | 41% | 1007.5 hPa | 0 mm | - | 2 W/m² | - |
| 1778025173 | 25° C | 41% | 1007.5 hPa | 0 mm | - | 2 W/m² | - |
| 1778024870 | 25° C | 41% | 1007.4 hPa | 0 mm | - | 4 W/m² | - |
| 1778024568 | 25° C | 41% | 1007.3 hPa | 0 mm | - | 6 W/m² | - |
| 1778024264 | 25.56° C | 40% | 1007.3 hPa | 0 mm | - | 9 W/m² | - |
| 1778023962 | 25.56° C | 40% | 1007.2 hPa | 0 mm | - | 12 W/m² | - |
| 1778023659 | 25.56° C | 39% | 1007.1 hPa | 0 mm | - | 14 W/m² | - |
| 1778023356 | 25.56° C | 39% | 1007.2 hPa | 0 mm | - | 17 W/m² | - |
| 1778023052 | 26.11° C | 39% | 1007.2 hPa | 0 mm | - | 19 W/m² | - |
| 1778022752 | 26.11° C | 40% | 1007.1 hPa | 0 mm | - | 21 W/m² | - |
| 1778022450 | 26.11° C | 39% | 1007 hPa | 0 mm | - | 21 W/m² | - |
| 1778022146 | 26.11° C | 38% | 1007 hPa | 0 mm | - | 24 W/m² | - |
| 1778021842 | 26.11° C | 38% | 1007.1 hPa | 0 mm | - | 29 W/m² | - |
| 1778021540 | 26.11° C | 38% | 1007.3 hPa | 0 mm | - | 28 W/m² | - |
| 1778021235 | 26.11° C | 38% | 1006.8 hPa | 0 mm | - | 29 W/m² | - |
| 1778020933 | 26.11° C | 37% | 1007 hPa | 0 mm | - | 29 W/m² | - |
| 1778020630 | 26.67° C | 37% | 1007 hPa | 0 mm | - | 29 W/m² | - |
| 1778020326 | 26.67° C | 37% | 1006.9 hPa | 0 mm | - | 30 W/m² | - |
| 1778020022 | 26.67° C | 37% | 1007 hPa | 0 mm | - | 36 W/m² | - |
| 1778019718 | 26.67° C | 36% | 1007 hPa | 0 mm | - | 41 W/m² | - |
| 1778019416 | 27.22° C | 35% | 1007.1 hPa | 0 mm | - | 49 W/m² | - |
| 1778019112 | 26.67° C | 36% | 1007 hPa | 0 mm | - | 55 W/m² | - |
* Rain latest hour (hover to see other rain measurements)
** Current wind speed in m/s (hover to see current wind gust speed)